Content
SEND FEEDBACK

Daily
Averages
Monthly
Summary
United States of America

STATEN ISLAND, NEW YORK


Home > North America > United States > New York
Elevation: 152 feet     Latitude: 40 35N     Longitude: 074 09W

WEATHER
 
SELECT A DAY
Number of Records: 189,786;   Date Range: 1/1/95 - 8/30/14
 
SHARE

PRINT THIS DATA

[ ← Previous Day ]
WEATHER ALMANAC - JANUARY 17, 2013
[ Next Day → ]
[ °C ]   °F
Weather ElementAverageHighLow
Temperature40.3 °F46 °F (12:51 pm)36 °F (11:51 pm)
Dewpoint27.3 °F33.1 °F (2:51 am)23 °F (8:51 pm)
Humidity60.6 %83 % (2:51 am)47 % (12:51 pm)
Barometer30.03 in30.09 in (6:51 pm)29.93 in (4:51 am)
Wind Speed9.4 mph13.8 mph (9:51 pm)
Wind Gust17.3 mph (3:51 pm)
Weather ElementAverage
Visibility10 mi
Wind DirectionWNW (275.7 °)

Weather ElementTotal
Precipitation---
Heating Degree Days24 (Base 65)
Averaged from 23 records on January 17, 2013
WEATHER CONDITIONS BREAKOUT
WIND DIRECTION BREAKOUT
WEATHER BY HOUR - JANUARY 17, 2013
[ °C ]   °F
Local TimeTemperatureDewpointHumidityBarometerVisibilityWind DirectionWind SpeedGust SpeedPrecipitationEventsConditions
1:51 AM39.2 °F32.0 °F75 %29.94 in10.0 miWSW (250°)10.4 mphOvercast
2:51 AM37.9 °F33.1 °F83 %29.95 in10.0 miSW (220°)10.4 mphClear
3:51 AM37.9 °F33.1 °F83 %29.94 in10.0 miSW (230°)9.2 mphPartly Cloudy
4:51 AM39.0 °F30.9 °F73 %29.93 in10.0 miWest (260°)6.9 mphScattered Clouds
5:51 AM39.0 °F30.0 °F70 %29.96 in10.0 miWest (270°)9.2 mphMostly Cloudy
6:51 AM37.9 °F30.0 °F73 %30.00 in10.0 miWest (270°)8.1 mphOvercast
7:51 AM39.0 °F28.0 °F65 %30.03 in10.0 miNW (310°)9.2 mphOvercast
8:51 AM39.0 °F28.0 °F65 %30.06 in10.0 miWest (280°)8.1 mphMostly Cloudy
9:51 AM42.1 °F28.9 °F60 %30.07 in10.0 miWest (270°)6.9 mphMostly Cloudy
10:51 AM42.1 °F28.0 °F58 %30.07 in10.0 miNW (310°)12.7 mphMostly Cloudy
11:51 AM43.0 °F27.0 °F53 %30.06 in10.0 miWNW (300°)11.5 mphMostly Cloudy
12:51 PM46.0 °F27.0 °F47 %30.05 in10.0 miNNW (330°)12.7 mphMostly Cloudy
1:51 PM44.1 °F26.1 °F49 %30.05 in10.0 miWNW (300°)11.5 mphMostly Cloudy
2:51 PM43.0 °F25.0 °F49 %30.05 in10.0 miWNW (300°)12.7 mphOvercast
3:51 PM43.0 °F25.0 °F49 %30.06 in10.0 miNW (320°)8.1 mph17.3 mphOvercast
4:51 PM42.1 °F24.1 °F49 %30.07 in10.0 miNorth (350°)9.2 mphOvercast
5:51 PM41.0 °F25.0 °F53 %30.08 in10.0 miNorth (360°)6.9 mphOvercast
6:51 PM41.0 °F24.1 °F51 %30.09 in10.0 miVariable3.5 mphOvercast
7:51 PM41.0 °F25.0 °F53 %30.09 in10.0 miNW (310°)5.8 mphOvercast
8:51 PM39.2 °F23.0 °F52 %30.06 in10.0 miNorth (350°)11.5 mphOvercast
9:51 PM37.9 °F25.0 °F60 %30.06 in10.0 miNorth (360°)13.8 mphOvercast
10:51 PM37.0 °F23.0 °F57 %30.02 in10.0 miNorth (360°)9.2 mphOvercast
11:51 PM36.0 °F26.1 °F67 %30.03 in10.0 miNNE (30°)9.2 mphOvercast
Hourly data recorded from KEWR, located miles away from Staten Island, New York







STORIES FROM OUR PARTNERS